Location: Unspecified
(48.2082°N, 0.0000°E)
Time: 04:40:19
(UTC+00:00)

A-11 Canister half - Pass Details

Date: 27 June 2019
Orbit: 1514 x 1685 km, 47.2° (Epoch: 22 July)

Event Time Altitude Azimuth Distance (km) Brightness Sun altitude
Rises 11:36:43 0° 262° (W) 4,901 11.6 64.6°
Reaches altitude 10° 11:39:54 10° 262° (W) 3,897 11.2 64.7°
Maximum altitude 11:49:53 85° 176° (S) 1,620 10.9 65.0°
Drops below altitude 10° 11:59:30 10° 89° (E) 3,762 11.2 65.1°
Sets 12:02:30 0° 89° (E) 4,725 11.6 65.1°
